Overview Statistics Trail Chart Weather Telemetry Raw packets
 

This is the latest recevied weather packets stored in our database for station/object PA5MB-15. If no packets are shown the sender has not sent any weather packets the latest 10 day(s).

<< 29 30 31 32 33 34 35 >>
Time Temp. Humidity Pressure Rain* Wind** Luminosity Snow
1777834249 13.89° C 98% 1012 hPa 0 mm - 1 W/m² -
1777833949 13.89° C 98% 1012 hPa 0 mm - 1 W/m² -
1777833632 13.89° C 98% 1011.9 hPa 0 mm - 1 W/m² -
1777833334 13.89° C 98% 1012.1 hPa 0.25 mm - 1 W/m² -
1777833050 13.89° C 98% 1012.1 hPa 0.76 mm - 1 W/m² -
1777832731 13.89° C 98% 1012 hPa 1.02 mm - 2 W/m² -
1777832421 13.89° C 98% 1012 hPa 1.02 mm - 2 W/m² -
1777832133 13.89° C 98% 1012 hPa 1.27 mm - 3 W/m² -
1777831834 13.89° C 98% 1012.1 hPa 1.27 mm - 3 W/m² -
1777831544 13.89° C 98% 1012.2 hPa 1.27 mm - 3 W/m² -
1777831234 13.89° C 98% 1012 hPa 1.27 mm - 2 W/m² -
1777830934 13.89° C 98% 1012 hPa 1.27 mm - 3 W/m² -
1777830645 13.89° C 98% 1012 hPa 1.27 mm - 3 W/m² -
1777830331 13.89° C 98% 1012 hPa 1.27 mm - 4 W/m² -
1777830050 13.89° C 98% 1012.1 hPa 1.27 mm - 5 W/m² -
1777829731 14.44° C 98% 1012.1 hPa 1.02 mm - 4 W/m² -
1777829444 14.44° C 98% 1012.1 hPa 1.27 mm - 3 W/m² -
1777829134 15° C 98% 1012.1 hPa 1.27 mm - 2 W/m² -
1777828834 15° C 97% 1012.1 hPa 2.79 mm - 1 W/m² -
1777828531 15° C 97% 1012.1 hPa 2.54 mm - 1 W/m² -
1777828234 15° C 97% 1012 hPa 2.54 mm - 1 W/m² -
1777827923 15° C 97% 1011.7 hPa 2.54 mm - 1 W/m² -
1777827634 15° C 97% 1011.4 hPa 2.54 mm - 1 W/m² -
1777827331 15° C 97% 1011.5 hPa 2.79 mm - 2 W/m² -
1777827031 15° C 97% 1011.5 hPa 3.56 mm - 3 W/m² -

* Rain latest hour (hover to see other rain measurements)
** Current wind speed in m/s (hover to see current wind gust speed)